Terug naar catalogus

STARLINK-33613

ActiefCommunicatieVLEO
NORAD 63286·PAYLOAD·🇺🇸 United States

Gelanceerd Mar 15, 2025 vanaf Cape Canaveral Space Force Station

Loading…

Volgende Passages (komende 24 uur)

TLE

VersSource: CelesTrak SupGP

Epoch: Sep 15, 2026, 02:39 UTC

1 63286C 25053X   26258.11090278 -.00024430  00000+0 -88505-3 0  2582
2 63286  43.0002 252.2036 0001366 261.2231   2.4576 15.27583543    17

Volg STARLINK-33613 in realtime met AllMySat

Download on the App Store